Orbital Elements at Epoch 2459200.5 (2020-Dec-17.0) TDB
Reference: JPL 21 (heliocentric ecliptic J2000)
Element | Value | Uncertainty (1-sigma) | Units |
e | .05785862397865196 | 4.3978e-08 | |
a | 3.001528491505921 | 2.6245e-08 | au |
q | 2.82786418315467 | 1.2974e-07 | au |
i | 10.56824937139869 | 6.9187e-06 | deg |
node | 170.5545839675046 | 2.5411e-05 | deg |
peri | 117.1388754865963 | 7.2123e-05 | deg |
M | 220.0984108543487 | 7.0797e-05 | deg |
tp | 2459938.629018016900 (2022-Dec-25.12901802) | 0.0003781 | TDB |
period | 1899.381187224662 5.20 | 2.4912e-05 6.821e-08 | d yr |
n | .1895354141766692 | 2.4859e-09 | deg/d |
Q | 3.175192799857173 | 2.7764e-08 | au |
|
| | Orbit Determination Parameters
Additional Information
|